Regional Weather Roundup
Issued by NWS

Home | Current Version | Previous Version | Text Only | Print | Product List | Glossary On
Versions: 1 2 3 4 5 6 7 8 9 10 11 12 13 14 15 16 17 18 19 20 21 22 23 24 25 26 27 28 29 30 31 32 33 34 35 36 37 38 39 40 41 42 43 44 45 46 47 48 49 50
424
ASUS44 KLIX 242113
RWRLA
LOUISIANA WEATHER ROUNDUP
NATIONAL WEATHER SERVICE NEW ORLEANS LA
300 PM CST TUE JAN 24 2017

NOTE: "FAIR" INDICATES FEW OR NO CLOUDS BELOW 12,000 FEET WITH NO
      SIGNIFICANT WEATHER AND/OR OBSTRUCTIONS TO VISIBILITY.
      SKY/WX - SKY CONDITION AND SIGNIFICANT WEATHER.
      TMP - AIR TEMPERATURE.    DP   - DEWPOINT TEMPERATURE.
      RH  - RELATIVE HUMIDITY.  PRES - PRESSURE.
      HX  - HEAT INDEX.         WCI  - WIND CHILL INDEX.

*  THESE STATIONS ARE NOT NWS OR FAA STATIONS AND ARE NOT UNDER
   NWS QUALITY CONTROL.

LAZ040-048-061>063-065-066-069-242200-
SOUTHEAST LOUISIANA

CITY           SKY/WX    TMP DP  RH WIND       PRES   REMARKS
N.O. AUDUBON   NOT AVBL
N.O. INTL ARPT MOSUNNY   67  51  56 S10       29.91S
N.O. LAKEFRONT SUNNY     69  49  48 S7        29.91F
N.O. DOWNTOWN*   N/A     70  50  49 S8        29.92S
RESERVE*       FAIR      73  46  37 S10       29.90F
SLIDELL        SUNNY     67  43  41 SE7       29.91F
BATON ROUGE    SUNNY     73  41  31 S9        29.88F
BOOTHVILLE     SUNNY     65  45  48 S7        29.93R
BELLE CHASSE   MOSUNNY   67  53  61 SE8       29.91S
BOGALUSA*      FAIR      72  37  28 S8        29.91F
GALLIANO*      CLEAR     69  51  53 SE5       29.92S
NEW ROADS*     FAIR      73  38  28 S13G18    29.87F
GONZALES*      FAIR      73  40  31 S8        29.89S
HAMMOND*       SUNNY     70  43  37 S7        29.91S
HOUMA*         SUNNY     70  46  43 S9        29.91S
PORT FOURCHON* CLEAR     66  55  68 SE10      29.92R

$$

LAZ041-044-053-054-242200-
SOUTHWEST LOUISIANA

CITY           SKY/WX    TMP DP  RH WIND       PRES   REMARKS
LAKE CHARLES   MOSUNNY   73  59  61 S14G24    29.82F
LAFAYETTE      SUNNY     72  53  51 S9G20     29.87F
PATTERSON      SUNNY     72  52  49 S12       29.90F
SALT POINT     NOT AVBL
NEW IBERIA     SUNNY     72  51  47 S14       29.89S
CHENAULT AIRPK MOSUNNY   73  57  56 S17       29.83F

$$

LAZ027-028-242200-
CENTRAL LOUISIANA

CITY           SKY/WX    TMP DP  RH WIND       PRES   REMARKS
FORT POLK      SUNNY     75  56  51 S18       29.77F
ALEXANDRIA INT SUNNY     72  53  51 S18       29.78F
ALEXANDRIA     SUNNY     73  46  38 S12G21    29.81F

$$

LAZ001-002-242200-
NORTHWEST LOUISIANA

CITY           SKY/WX    TMP DP  RH WIND       PRES   REMARKS
SHREVEPORT     MOSUNNY   77  50  38 S15G28    29.69F
BARKSDALE AFB  SUNNY     75  50  40 S21G29    29.69F
DTN SHREVEPORT SUNNY     77  49  37 S15       29.69F

$$

LAZ014-016-242200-
NORTHEAST LOUISIANA

CITY           SKY/WX    TMP DP  RH WIND       PRES   REMARKS
MONROE         SUNNY     72  42  34 S10G16    29.78F
TALLULAH       SUNNY     71  37  28 S13       29.82F

$$





USA.gov is the U.S. government's official web portal to all federal, state and local government web resources and services.